Location: Maiden
(35.5760°N, 81.2120°W)
Time: 10:44:53
(UTC-04:00)

Daily predictions for brighter satellites

Satellite Brightness Start Highest point End
(mag) Time Altitude Azimuth Time Altitude Azimuth Time Altitude Azimuth
USA 267 3.4 19:41:53 10° NE 19:48:16 54° SE 19:54:38 10° SSW
COSMOS 2455 4.1 19:48:13 10° SE 19:51:59 17° ESE 19:55:47 10° ENE
ISS -2.5 19:50:22 10° S 19:53:01 23° SE 19:55:42 10° ENE
Cosmos 1697 Rocket 2.7 19:48:34 10° NNW 19:54:10 65° ENE 19:59:44 10° SSE
Cosmos 1544 4.2 19:53:17 10° SE 19:56:19 24° E 19:59:21 10° NE
Cosmos 1378 3.3 19:52:51 10° N 19:56:27 47° E 20:00:02 10° SSE
ASTRO E2 3.4 19:53:30 10° WSW 19:57:19 43° S 20:01:07 10° ESE
Hubble Space Telescope 2.0 20:02:10 10° WSW 20:05:47 30° S 20:09:00 12° ESE
FengYun 1-2 T 4.3 20:00:30 10° SSE 20:06:08 72° ENE 20:11:45 10° N
Cosmos 1544 Rocket 3.9 20:03:51 10° SSW 20:08:09 69° W 20:12:31 10° N
Cosmos 1626 Rocket 4.0 20:06:15 10° N 20:10:25 40° E 20:14:32 10° SSE
HJ-1C 4.3 20:08:19 10° SE 20:11:18 29° ENE 20:14:17 10° NNE
Cosmos 2344 4.0 20:06:37 10° SW 20:14:12 67° NW 20:22:15 10° NNE
Atlas Centaur 2 3.9 20:13:55 10° SW 20:16:07 14° SSW 20:18:32 10° S
Cosmos 1992 Rocket 4.0 20:15:35 10° S 20:20:41 57° ESE 20:25:50 10° NNE
Cosmos 1315 Rocket 3.4 20:16:41 10° NNW 20:20:46 62° W 20:24:49 10° S
SJ-6B 3.8 20:19:10 18° ESE 20:20:56 26° ENE 20:24:08 10° NNE
SL-24 R/B - RUBIN 2 3.8 20:18:30 10° SSW 20:23:18 54° ESE 20:27:43 10° NE
Cosmos 1816 Rocket 4.4 20:19:00 10° S 20:25:06 73° E 20:31:17 10° N
MOS 1 4.4 20:19:58 10° SSE 20:25:38 82° WSW 20:31:19 10° NNW
GP-B 3.4 20:21:50 10° NNE 20:26:05 43° E 20:30:18 10° SSE
Cosmos 2360 4.1 20:22:21 10° NNW 20:28:05 74° ENE 20:33:44 10° SSE
Envisat 2.9 20:29:57 10° SSE 20:35:00 88° E 20:40:07 10° NNW
EO 1 Del DPAF 3.7 20:33:25 10° NNE 20:36:57 36° E 20:40:28 10° SSE
Meteosat 1 Rocket2 4.0 20:38:11 10° SW 20:41:31 30° S 20:42:43 25° SE
Timation 2 Rocket 4.4 20:36:04 10° S 20:42:25 44° ESE 20:48:52 10° NE
Cosmos 2034 Rocket 4.4 20:38:24 10° NNW 20:44:32 65° W 20:50:42 10° S
Cosmos 1354 Rocket 4.0 20:40:28 10° N 20:45:44 64° ENE 20:49:04 22° SSE
Cosmos 371 Rocket 3.7 20:42:13 10° S 20:46:43 38° ESE 20:51:13 10° NE
Cosmos 1939 Rocket 3.1 20:46:43 35° SE 20:48:03 50° ENE 20:52:04 10° N
H-2A R/B 4.2 20:52:48 10° NE 20:52:48 10° NE 20:52:48 10° NE
Tsikada Rocket 4.4 20:46:19 10° SSW 20:52:25 63° W 20:58:35 10° N
USA 186 2.9 20:54:32 31° NNE 20:54:32 31° NNE 20:56:28 10° N
Aureole 2 Rocket 3.6 20:51:43 10° N 20:54:04 30° NNE 20:54:04 30° NNE
YAOGAN 6 2.5 20:54:10 31° S 20:55:47 87° WSW 20:59:21 10° NNW
Cosmos 1707 3.6 20:52:32 10° NNW 20:56:15 49° W 20:59:56 10° SSW
FREGAT/IRIS 4.3 20:56:31 10° SSW 20:59:07 32° W 21:01:48 10° NNW
SPOT 3 Rocket 4.3 20:54:22 10° S 20:59:23 53° W 21:04:26 10° NNW
Cosmos 1634 Rocket 3.9 20:53:54 10° N 21:00:11 67° E 21:04:51 18° SSE
Cosmos 2360 Rocket 3.9 20:57:30 10° NNE 21:00:34 17° NE 21:00:34 17° NE
Resurs 01 Rocket 2.7 21:03:09 30° NE 21:03:09 30° NE 21:06:05 10° N
Cosmos 1980 Rocket 2.8 20:59:28 10° NNW 21:04:57 54° WSW 21:10:23 10° S
Cosmos 1602 Rocket 4.4 21:01:39 10° NNW 21:05:59 51° W 21:10:17 10° SSW
SJ-11-01 4.4 21:05:55 51° E 21:06:06 51° ENE 21:10:43 10° N
Cosmos 968 Rocket 3.4 21:01:16 10° N 21:06:26 62° ENE 21:07:32 50° ESE
IRAS Rocket 4.1 21:06:47 40° SE 21:08:39 65° ENE 21:14:05 10° N
Cosmos 1606 Rocket 3.6 21:09:41 58° NE 21:09:41 58° NE 21:13:30 10° NNE
OAO 2 Rocket 4.1 21:07:26 10° SW 21:11:15 34° S 21:11:15 34° S
Cosmos 1825 Rocket 3.7 21:12:32 10° N 21:16:22 60° NE 21:16:22 60° NE
SL-16 R/B 2.0 21:21:24 10° NNW 21:27:05 70° ENE 21:27:17 69° E
ISS -1.7 21:26:30 10° W 21:28:48 27° WNW 21:28:48 27° WNW
USA 267 4.4 21:25:05 10° NNE 21:31:06 41° NW 21:37:07 10° WSW
Cosmos 2279 Rocket 3.8 21:26:03 10° N 21:32:14 71° E 21:32:42 68° ESE
Cosmos 2322 Rocket 2.1 21:28:15 10° NNW 21:33:52 73° ENE 21:33:52 73° ENE
COSMOS 2455 3.2 21:31:22 10° SW 21:37:19 62° WNW 21:43:17 10° NNE
Resurs 1-3 4.4 21:38:54 46° NNW 21:38:54 46° NNW 21:42:01 10° NNW
Cosmos 1758 Rocket 4.3 21:33:51 10° N 21:37:03 47° NNW 21:37:03 47° NNW
USA 229 DEB 3.8 21:38:10 10° SW 21:44:46 71° WNW 21:51:38 10° NNE
USA 229 3.8 21:38:15 10° SW 21:44:53 72° WNW 21:51:44 10° NNE
Hubble Space Telescope 3.2 21:43:11 10° WSW 21:44:20 16° SW 21:44:20 16° SW
Cosmos 2180 Rocket 4.5 21:44:22 10° N 21:49:52 69° NNE 21:49:52 69° NNE
Thor Agena Rocket 4.4 21:56:24 10° N 22:00:18 46° NNW 22:00:18 46° NNW
USA 234 3.6 22:02:53 51° NNE 22:02:53 51° NNE 22:08:39 10° NW
H-2A R/B 4.3 22:33:26 19° NNW 22:33:26 19° NNW 22:34:48 10° NNW
Cosmos 2360 Rocket 4.1 22:40:01 10° NNW 22:42:21 25° NW 22:42:21 25° NW
